Starlink 5400

operational
NORAD ID: 54861 Int'l Des: 2022-177 Owner: SPXS Country: US Constellation: starlink
LEOCIRCULAR

Über Starlink 5400

Beschreibung wird geladen...

Live-Position

3D-Globus wird geladen...

Nächste Überflüge

Höhenverlauf

Altitude vs Time

uPlot chart will show altitude changes over time

Zweizeiliger Elementsatz

1 54861U 22177AT 25350.98589552 .00000525 00000-0 53911-4 0 9994
2 54861 43.0025 209.7864 0001149 269.5776 90.4934 15.02534300164668
Epoch: 16. Dez. 2025 • Age: 8 hours

Aktueller Status

Höhe 559.8 km
Geschwindigkeit 7.58 km/s
Subsatellitenpunkt -6.36°S, 1.01°E
Startdatum 28. Dez. 2022
Alter 2.9 years
Typ internet

Technische Details

Klassifizierung Payload
Masse 305.00 kg
Trockenmasse 290.00 kg
Gesamtmasse 305.00 kg
Länge 0.20 m
Durchmesser 2.80 m
Spannweite 9.00 m
Form Box + pan
Hersteller SPXS
Bus-Typ Starlink
Phasenstatus In Orbit
Besitzer/Staat SPXS/US

Große Konstellationen

Loading constellations...